Orbital Elements at Epoch 2459200.5 (2020-Dec-17.0) TDB
Reference: JPL 28 (heliocentric ecliptic J2000)
Element | Value | Uncertainty (1-sigma) | Units |
e | .05835211776620211 | 3.5454e-08 | |
a | 2.288234324393758 | 8.193e-09 | au |
q | 2.154711005620068 | 8.276e-08 | au |
i | 2.051668250680665 | 3.4468e-06 | deg |
node | 253.6957964302176 | 0.00011691 | deg |
peri | 48.39064270292728 | 0.00012175 | deg |
M | 323.9932475776976 | 3.543e-05 | deg |
tp | 2459326.953432506572 (2021-Apr-22.45343251) | 0.00012458 | TDB |
period | 1264.297184273946 3.46 | 6.7902e-06 1.859e-08 | d yr |
n | .2847431794343028 | 1.5293e-09 | deg/d |
Q | 2.421757643167449 | 8.671e-09 | au |
|
| | Orbit Determination Parameters
Additional Information
|